STARLINK-1687

Last updated on Fri Nov 06 2020 00:02:03 GMT+0000 (Coordinated Universal Time)

1 46541U 20070K 20310.83334491 -.00056633 00000-0 -61425-3 0 9996 2 46541 52.9990 291.3381 0000603 350.3085 126.5170 15.62866780 5608

Satellite not in orbit